Location: Neuvy Saint Sepulchre
(46.5953°N, 1.8122°E)
Time: 12:39:14
(UTC+02:00)

ISS - Pass Details

Date: 27 March 2019
Orbit: 408 x 410 km, 51.6° (Epoch: 24 April)

Event Time Altitude Azimuth Distance (km) Brightness Sun altitude
Rises 20:06:34 0° 260° (W) 2,333 1.4 -9.6°
Reaches altitude 10° 20:08:42 10° 267° (W) 1,473 0.3 -10.0°
Maximum altitude 20:11:55 48° 343° (NNW) 547 -2.9 -10.5°
Drops below altitude 10° 20:15:08 10° 59° (ENE) 1,475 -1.4 -11.1°
Enters shadow 20:15:16 - 60° (ENE) 1,530 -1.3 -11.1°
